Zurück zum Katalog

TDF 2

AktivKommunikationGEO
NORAD 20705·PAYLOAD·🇫🇷 France

Gestartet Jul 24, 1990 von Guiana Space Centre

Loading…

TLE

AktuellSource: Space-Track

Epoche: Sep 13, 2026, 17:48 UTC

1 20705U 90063A   26256.74172791 -.00000134  00000-0  00000-0 0  9990
2 20705  15.2106 357.6910 0042063 328.4576  44.3266  0.98608474133448

Verfolge TDF 2 in Echtzeit mit AllMySat

Download on the App Store